This demonstration page uses our WeatherBlox Daily Observations layout. Learn more.

Left ArrowRight Arrow

34.02893, -84.19858

Hourly Observations for March 12, 2016

Temp ( °F °C ) Dew Point ( °F °C ) Humidity (%) Winds ( mph kmh ) Pressure ( in mb ) Visibility ( mi km ) Precip ( " mm )
12:53 am 00:53 Mostly Cloudy 66 18.9 61 16.1 84 84 Calm 30.14 1021 10 16 0.00 0.00
1:53 am 01:53 Cloudy 67 19.4 61 16.1 81 81 SE 3 6 30.13 1020 10 16 0.00 0.00
2:53 am 02:53 Clear 66 18.9 61 16.1 84 84 SE 3 6 30.11 1020 10 16 0.00 0.00
3:53 am 03:53 Clear 64 17.8 61 16.1 90 90 SE 3 6 30.10 1019 10 16 0.00 0.00
4:53 am 04:53 Clear 63 17.2 61 16.1 93 93 ESE 3 6 30.08 1019 10 16 0.00 0.00
5:53 am 05:53 Clear 63 17.2 60 15.6 90 90 Calm 30.09 1019 10 16 0.00 0.00
6:53 am 06:53 Sunny 59 15 58 14.4 96 96 Calm 30.15 1021 8 13 0.00 0.00
7:53 am 07:53 Sunny 64 17.8 61 16.1 90 90 Calm 30.14 1021 8 13 0.00 0.00
8:53 am 08:53 Partly Cloudy 69 20.6 61 16.1 76 76 ESE 3 6 30.15 1021 10 16 0.00 0.00
9:53 am 09:53 Partly Cloudy 73 22.8 60 15.6 64 64 S 8 13 30.16 1021 10 16 0.00 0.00
10:53 am 10:53 Sunny 74 23.3 58 14.4 57 57 S 14 22 30.14 1021 10 16 0.00 0.00
11:53 am 11:53 Mostly Sunny 75 23.9 60 15.6 60 60 S 10 17 30.12 1020 10 16 0.00 0.00
12:53 pm 12:53 Partly Cloudy 75 23.9 61 16.1 62 62 SSE 9 15 30.09 1019 10 16 0.00 0.00
1:53 pm 13:53 Mostly Cloudy 75 23.9 59 15 58 58 S 9 15 30.06 1018 10 16 0.00 0.00
2:53 pm 14:53 Sunny 76 24.4 58 14.4 54 54 S 9 15 30.03 1017 10 16 0.00 0.00
3:53 pm 15:53 Mostly Cloudy 75 23.9 59 15 58 58 SSE 8 13 30.03 1017 10 16 0.00 0.00
4:53 pm 16:53 Sunny 76 24.4 57 13.9 52 52 S 10 17 30.01 1016 10 16 0.00 0.00
5:53 pm 17:53 Sunny 75 23.9 55 12.8 50 50 SSE 7 11 29.99 1016 10 16 0.00 0.00
6:53 pm 18:53 Clear 72 22.2 56 13.3 57 57 Calm 29.99 1016 10 16 0.00 0.00
7:53 pm 19:53 Partly Cloudy 71 21.7 58 14.4 63 63 Calm 29.98 1015 10 16 0.00 0.00
8:53 pm 20:53 Mostly Clear 70 21.1 58 14.4 66 66 E 3 6 29.97 1015 10 16 0.00 0.00
9:53 pm 21:53 Mostly Cloudy 70 21.1 57 13.9 64 64 Calm 29.97 1015 10 16 0.00 0.00
10:53 pm 22:53 Mostly Clear 70 21.1 57 13.9 64 64 SE 6 9 29.96 1015 10 16 0.00 0.00
11:53 pm 23:53 Mostly Cloudy 69 20.6 57 13.9 66 66 SSE 3 6 29.95 1014 10 16 0.00 0.00

Powered by AerisWeather